Regional Weather Roundup
Issued by NWS Northern Indiana

Home | Current Version | Previous Version | Graphics & Text | Print | Product List | Glossary On
Versions: 1 2 3 4 5 6 7 8 9 10 11 12 13 14 15 16 17 18 19 20 21 22 23 24 25 26 27 28 29 30 31 32 33 34 35 36 37 38 39 40 41 42 43 44 45 46 47 48 49 50
000
ASUS43 KIWX 250510
RWRIWX

KIWX WEATHER ROUNDUP
NATIONAL WEATHER SERVICE NORTHERN INDIANA
100 AM EDT TUE APR 25 2017

NOTE: "FAIR" INDICATES FEW OR NO CLOUDS BELOW 12,000 FEET WITH NO
SIGNIFICANT WEATHER AND/OR OBSTRUCTIONS TO VISIBILITY.

* THESE STATIONS ARE NOT UNDER NWS QUALITY CONTROL. THEY ALSO MAY NOT
  REPORT WEATHER SUCH AS PRECIPITATION OR FOG.

INZ001>027-250600-
NORTHERN INDIANA

CITY           SKY/WX    TMP DP  RH WIND       PRES   REMARKS
GARY*          PTCLDY    62  33  34 E9        29.77F
VALPARAISO     CLEAR     56  39  53 E6        29.79R
MICHIGAN CITY* CLEAR     57  34  41 SE8G16    29.79S
LAPORTE*       PTCLDY    55  38  52 E8        29.79S
KNOX*          CLEAR     57  12  17 E13       29.78S
SOUTH BEND     CLEAR     56  37  49 SE12      29.82S
GOSHEN         CLEAR     53  38  56 SE8       29.81F
MONTICELLO*    CLEAR     59  41  51 E8        29.77R
LOGANSPORT*    CLEAR     52  41  66 E8        29.80R
ROCHESTER*     CLEAR     59  41  51 E7        29.80S
WARSAW*        PTCLDY    54  39  58 E6        29.81S
ANGOLA*        CLEAR     52  43  71 E6        29.83F
FORT WAYNE     PTCLDY    52  42  69 E8        29.82F
HUNTINGTON*    CLEAR     53  41  64 E5        29.80F
PERU/GRISSOM   CLEAR     57  45  64 E6        29.78S
MARION*        CLEAR     55  48  76 SE7       29.80F

$$
INZ028>050-250600-
CENTRAL INDIANA

CITY           SKY/WX    TMP DP  RH WIND       PRES   REMARKS
LAFAYETTE      CLEAR     55  45  68 E7        29.76R
KOKOMO*        CLEAR     56  45  66 E7        29.80S
MUNCIE*        CLEAR     60  51  72 SE12      29.80F
INDIANAPOLIS   CLEAR     60  51  72 SE9       29.77F

$$
MIZ043>046-050>051-056>058-064>065-071>073-077>080-250600-
SOUTHWEST LOWER MICHIGAN

CITY           SKY/WX    TMP DP  RH WIND       PRES   REMARKS
BATTLE CREEK   CLOUDY    56  38  50 SE12      29.83F
BENTON HARBOR  CLEAR     57  32  38 SE8       29.80S
COLDWATER*     PTCLDY    53  43  66 E9        29.84S
HILLSDALE*     CLEAR     48  43  81 E6        29.85F
HOLLAND        CLEAR     58  35  42 SE13      29.82S
GRAND RAPIDS   CLEAR     57  36  45 E10       29.83F
KALAMAZOO      CLOUDY    57  36  45 SE6       29.83S
STURGIS*       CLEAR     54  41  62 E9        29.82S
THREE RIVERS*  FAIR      55  38  54 SE9       29.82F

$$
OHZ001>008-015>018-024>025-250600-
NORTHWEST OHIO

CITY           SKY/WX    TMP DP  RH WIND       PRES   REMARKS
WAUSEON*       MOCLDY    55  46  71 E13       29.85F
DEFIANCE       PTCLDY    50  43  77 E8        29.84F
FINDLAY        CLEAR     57  45  64 SE10      29.85S
TOLEDO EXPRESS PTCLDY    53  47  79 E6        29.86F
TOLEDO METCALF MOCLDY    54  49  83 E5        29.88F
LIMA           CLEAR     55  47  74 SE13      29.84F

$$
AND FOR LAKE MICHIGAN COASTAL AND OPEN LAKE BUOY OBSERVATIONS

STATION/POSITION TEMP    WIND        PRES    VSBY  WAVE
                 AIR SEA DIR/SP/G                  HT/PER
                 (F)     (DEG/KT/KT) (MB)    (MI)  (FT/S)
CALUMET HARBOR    59     100/  7/ 10 1007.5F
MICHIGAN CITY     60     100/ 11/ 13   N/A
BURNS HARBOR      62     120/ 13/ 20 1008.8R
SOUTH LAKE BUOY   48 41  100/  8/ 10 1009.3          1
4 MI NW BRIDGMAN  58 51  140/ 12/ 17 1008.9          1

$$
&&



USA.gov is the U.S. government's official web portal to all federal, state and local government web resources and services.